Weather History for Columbus, GA

Change the Weather History Date:

Saturday, October 13, 2012

  Actual Average Record
Temperature  
Mean Temperature 73 °F 67 °F  
Max Temperature 81 °F 78 °F 89 °F (1975)
Min Temperature 64 °F 57 °F 42 °F (1977)
Degree Days  
Heating Degree Days 0 2  
Month to date heating degree days 0 15  
Since 1 July heating degree days 0 18  
Cooling Degree Days 8 4  
Month to date cooling degree days 73 70  
Year to date cooling degree days 2563 2292  
Growing Degree Days 22 (Base 50)    
Moisture  
Dew Point 58 °F    
Average Humidity 66    
Maximum Humidity 87    
Minimum Humidity 45    
Precipitation  
Precipitation 0.00 in 0.09 in 2.08 in (1986)
Month to date precipitation 0.97 1.13  
Year to date precipitation 28.78 36.93  
Sea Level Pressure  
Sea Level Pressure 30.24 in    
Wind  
Wind Speed 6 mph (ESE)    
Max Wind Speed 17 mph    
Max Gust Speed 23 mph    
Visibility 10 miles    
Events      
T = Trace of Precipitation, MM = Missing Value Source: NWS Daily Summary

Daily Weather History Graph

Daily Weather History Graph

Search for Another Location

Airport:

Trip Planner

Search our weather history database for the weather conditions in past years. The results will help you decide how hot, cold, wet, or windy it might be!

Date:

Astronomy

Oct. 13, 2012 Rise Set
Actual Time 7:42 AM EDT 7:08 PM EDT
Civil Twilight 7:17 AM EDT 7:33 PM EDT
Nautical Twilight 6:49 AM EDT 8:01 PM EDT
Astronomical Twilight 6:20 AM EDT 8:30 PM EDT
Moon 5:36 AM EDT (10/13) 5:48 PM EDT (10/13)
Length of Visible Light 12h 15m
Length of Day
11h 26m
Waning Crescent, 5% of the Moon is Illuminated
Oct 13
Waning Crescent
Oct 15
New
Oct 21
First Quarter
Oct 29
Full
Nov 6
Last Quarter

Hourly Weather History & Observations

Time (EDT) Temp. Heat Index Dew Point Humidity Pressure Visibility Wind Dir Wind Speed Gust Speed Precip Events Conditions
12:51 AM 69.8 °F - 60.8 °F 73% 30.24 in 10.0 mi Calm Calm - N/A   Clear
1:51 AM 69.8 °F - 60.8 °F 73% 30.23 in 10.0 mi Calm Calm - N/A   Clear
2:51 AM 68.0 °F - 60.8 °F 78% 30.23 in 10.0 mi Calm Calm - N/A   Clear
3:51 AM 64.9 °F - 60.1 °F 84% 30.22 in 10.0 mi Calm Calm - N/A   Clear
4:51 AM 66.9 °F - 59.0 °F 76% 30.22 in 10.0 mi NE 3.5 mph - N/A   Clear
5:51 AM 66.9 °F - 59.0 °F 76% 30.23 in 10.0 mi ENE 4.6 mph - N/A   Clear
6:51 AM 64.4 °F - 57.2 °F 77% 30.25 in 10.0 mi East 4.6 mph - N/A   Clear
7:51 AM 64.9 °F - 57.9 °F 78% 30.25 in 10.0 mi East 8.1 mph - N/A   Clear
8:51 AM 66.9 °F - 59.0 °F 76% 30.28 in 10.0 mi East 11.5 mph - N/A   Clear
9:51 AM 69.1 °F - 60.1 °F 73% 30.30 in 10.0 mi ESE 11.5 mph - N/A   Clear
10:51 AM 73.0 °F - 62.1 °F 68% 30.30 in 10.0 mi SE 8.1 mph - N/A   Scattered Clouds
11:51 AM 75.9 °F - 61.0 °F 60% 30.30 in 10.0 mi SE 13.8 mph - N/A   Scattered Clouds
12:51 PM 78.1 °F - 60.1 °F 54% 30.27 in 10.0 mi SE 9.2 mph 17.3 mph N/A   Scattered Clouds
1:51 PM 78.8 °F - 60.8 °F 54% 30.26 in 10.0 mi ESE 4.6 mph - N/A   Mostly Cloudy
2:51 PM 79.0 °F - 59.0 °F 50% 30.22 in 10.0 mi SSE 9.2 mph - N/A   Mostly Cloudy
3:51 PM 81.0 °F 81.3 °F 59.0 °F 47% 30.20 in 10.0 mi South 10.4 mph - N/A   Scattered Clouds
4:51 PM 80.1 °F 80.4 °F 57.0 °F 45% 30.20 in 10.0 mi ESE 5.8 mph - N/A   Scattered Clouds
5:51 PM 79.0 °F - 55.0 °F 44% 30.20 in 10.0 mi ESE 6.9 mph - N/A   Partly Cloudy
6:51 PM 77.0 °F - 55.4 °F 47% 30.20 in 10.0 mi SE 5.8 mph - N/A   Partly Cloudy
7:51 PM 73.9 °F - 55.0 °F 52% 30.20 in 10.0 mi East 3.5 mph - N/A   Clear
8:51 PM 72.0 °F - 55.9 °F 57% 30.21 in 10.0 mi East 4.6 mph - N/A   Clear
9:51 PM 69.8 °F - 55.4 °F 60% 30.23 in 10.0 mi East 6.9 mph - N/A   Clear
10:51 PM 69.1 °F - 55.9 °F 63% 30.22 in 10.0 mi East 6.9 mph - N/A   Clear
11:51 PM 66.2 °F - 55.4 °F 68% 30.23 in 10.0 mi East 6.9 mph - N/A   Clear